Location: Unspecified
(0.0000°N, 0.0000°E)
Time: 14:14:04
(UTC+02:00)

USA 116 - Visible Passes

Search period start: 01 October 2014 00:00
Search period end: 11 October 2014 00:00
Orbit: 405 x 834 km, 97.9° (Epoch: 18 November)

Date Brightness Start Highest point End Pass type
(mag) Time Alt. Az. Time Alt. Az. Time Alt. Az.
01 Oct 5.0 06:50:16 10° SSW 06:51:49 18° SW 06:51:49 18° SW visible
02 Oct 5.4 07:06:08 10° SW 07:06:39 11° WSW 07:06:39 11° WSW visible
03 Oct 6.5 05:44:02 10° SE 05:44:29 12° ESE 05:44:29 12° ESE visible
04 Oct 5.7 05:58:07 10° SSE 05:59:19 19° SE 05:59:19 19° SE visible
05 Oct 4.9 06:12:32 10° SSE 06:14:10 27° SSE 06:14:10 27° SSE visible
06 Oct 4.5 06:27:14 10° S 06:29:01 29° SSW 06:29:01 29° SSW visible
07 Oct 4.6 06:42:13 10° SSW 06:43:53 22° SW 06:43:53 22° SW visible
08 Oct 5.1 06:57:38 10° SW 06:58:45 14° WSW 06:58:45 14° WSW visible
10 Oct 6.0 05:50:33 10° SE 05:51:31 16° ESE 05:51:31 16° ESE visible
